This is the latest recevied weather packets stored in our database for station/object N6HGA-1. If no packets are shown the sender has not sent any weather packets the latest 10 day(s).
| Time | Temp. | Humidity | Pressure | Rain* | Wind** | Luminosity | Snow |
|---|---|---|---|---|---|---|---|
| 1778009843 | 17.22° C | 75% | - | 0 mm | - | - | - |
| 1778009543 | 17.78° C | 75% | - | 0 mm | - | - | - |
| 1778009241 | 17.22° C | 74% | - | 0 mm | - | - | - |
| 1778008939 | 17.22° C | 75% | - | 0 mm | - | - | - |
| 1778008637 | 17.22° C | 74% | - | 0 mm | - | - | - |
| 1778008334 | 16.67° C | 75% | - | 0 mm | - | - | - |
| 1778007730 | 16.67° C | 76% | - | 0 mm | - | - | - |
| 1778007429 | 16.11° C | 78% | - | 0 mm | - | - | - |
| 1778007129 | 15.56° C | 79% | - | 0 mm | - | - | - |
| 1778006821 | 16.11° C | 79% | - | 0 mm | - | - | - |
| 1778006521 | 16.11° C | 79% | - | 0 mm | - | - | - |
| 1778006225 | 16.11° C | 77% | - | 0 mm | - | - | - |
| 1778005620 | 16.11° C | 78% | - | 0 mm | - | - | - |
| 1778005319 | 16.11° C | 79% | - | 0 mm | - | - | - |
| 1778005018 | 16.11° C | 78% | - | 0 mm | - | - | - |
| 1778004718 | 16.67° C | 76% | - | 0 mm | - | - | - |
| 1778004415 | 17.22° C | 76% | - | 0 mm | - | - | - |
| 1778004115 | 17.22° C | 76% | - | 0 mm | - | - | - |
| 1778003812 | 17.22° C | 79% | - | 0 mm | - | - | - |
| 1778003509 | 16.67° C | 78% | - | 0 mm | - | - | - |
| 1778003205 | 16.11° C | 77% | - | 0 mm | - | - | - |
| 1778002904 | 15.56° C | 71% | - | 0 mm | - | - | - |
| 1778002601 | 15.56° C | 72% | - | 0 mm | - | - | - |
| 1778002301 | 15° C | 72% | - | 0 mm | - | - | - |
| 1778002001 | 15.56° C | 70% | - | 0 mm | - | - | - |
* Rain since midnight (hover to see other rain measurements)
** Current wind speed in m/s (hover to see current wind gust speed)